Piloten Info

Wichtige Hinweise:

  • Neue Tower Frequenz 122,330 kHz - keine Landung ohne Funkkontakt
  • PPR Betrieb
  • Temporäre Hindernisse (Baukräne) nahe dem Flugplatz durch Bauarbeiten entlang der Nürnberger Straße (Östliche Seite).
  • Starts auf RWY 09 sind nicht gestattet. Start generell auf RWY 27. Bei Planung Rückenwinde berücksichtigen!
  • Bei Anflügen auf RWY 27 sind Hindernisse vorhanden, aus diesem Grund die versetzte Schwelle27!
  • Der Flugverein Neumarkt führt seine Starts generell auf RWY 27 und Landungen auf RWY09 durch.
  • Es besteht keine Tankmöglichkeit.

Diese Hinweis sind als Ergänzung / Hilfe zur regulären Flugplanung gedacht.

Auszüge aus AIP VFR ohne Gewähr - es gelten die offiziellen Veröffentlichungen.




Wind Infos (noch im Aufbau)

Wind Speed
Wind Direction


METAR Informationen der nächstgelegenen Flughäfen


EDDN / Flughafen Nürnberg „Albrecht Dürer“

EDDN 251150Z 32012KT 9999 SCT031TCU 16/08 Q1029 NOSIG

ETIC / Fliegerhorst Grafenwöhr AAF

ETIC 251157Z AUTO 32012G23KT 9999 -RA FEW004 FEW035 BKN042 BKN060 BKN075 15/10 A3036 RMK AO2 SLP282 $

ETIH / Fliegerhorst Hohenfels AAF

ETIH 251156Z AUTO 30009G15KT 9999 -RA SCT029 BKN055 BKN070 14/10 A3039 RMK AO2 RAB34 SLP292 P0004 60004 70005 T01370099 10162 20125 57003 $